Weather History for KMSS - June, 2013

Change the Weather History Date:

Friday, June 28, 2013

  Actual Average Record
Temperature  
Mean Temperature 61 °F 68 °F  
Max Temperature 64 °F 79 °F 93 °F (1991)
Min Temperature 57 °F 56 °F 40 °F (1970)
Degree Days  
Heating Degree Days 4 1  
Month to date heating degree days 93  
Since 1 June heating degree days 93  
Since 1 July heating degree days 8194  
Cooling Degree Days 0 4  
Month to date cooling degree days 72 66  
Year to date cooling degree days 95 80  
Since 1 June cooling degree days 72 66  
Growing Degree Days 10 (Base 50)    
Moisture  
Dew Point 58 °F    
Average Humidity 92    
Maximum Humidity 100    
Minimum Humidity 84    
Precipitation  
Precipitation 1.28 in 0.11 in 1.34 in (2010)
Month to date precipitation 7.56 3.28  
Year to date precipitation 15.86 15.21  
Sea Level Pressure  
Sea Level Pressure 29.53 in    
Wind  
Wind Speed 7 mph (NNW)    
Max Wind Speed 21 mph    
Max Gust Speed 26 mph    
Visibility 5 miles    
Events Rain    
T = Trace of Precipitation, MM = Missing Value Source: NWS Daily Summary

Daily Weather History Graph

Daily Weather History Graph

Search for Another Location

Airport or City:

Trip Planner

Search our weather history database for the weather conditions in past years. The results will help you decide how hot, cold, wet, or windy it might be!

Date:

Astronomy

Jun. 28, 2013 Rise Set
Actual Time 5:15 AM EDT 8:49 PM EDT
Civil Twilight 4:38 AM EDT 9:27 PM EDT
Nautical Twilight 3:48 AM EDT 10:16 PM EDT
Astronomical Twilight 2:43 AM EDT 11:21 PM EDT
Moon 11:59 PM EDT (6/28) 11:37 AM EDT (6/28)
Length of Visible Light 16h 48m
Length of Day
15h 34m
Waning Gibbous, 66% of the Moon is Illuminated
Jun 28
Waning Gibbous
Jun 30
Last Quarter
Jul 8
New
Jul 15
First Quarter
Jul 22
Full

Hourly Weather History & Observations

Time (EDT) Temp. Dew Point Humidity Pressure Visibility Wind Dir Wind Speed Gust Speed Precip Events Conditions
12:17 AM 64.4 °F 59.0 °F 83% 29.73 in 10.0 mi NE 18.4 mph - N/A   Overcast
12:53 AM 63.0 °F 57.9 °F 84% 29.70 in 10.0 mi NE 13.8 mph 26.5 mph N/A   Scattered Clouds
1:34 AM 62.6 °F 57.2 °F 82% 29.69 in 10.0 mi NE 17.3 mph 25.3 mph N/A   Mostly Cloudy
1:53 AM 62.1 °F 57.0 °F 84% 29.68 in 10.0 mi ENE 13.8 mph 23.0 mph N/A   Overcast
2:53 AM 60.1 °F 55.9 °F 86% 29.67 in 9.0 mi ENE 16.1 mph 21.9 mph N/A   Overcast
3:30 AM 60.8 °F 55.4 °F 82% 29.65 in 9.0 mi ENE 15.0 mph - N/A   Overcast
3:53 AM 59.0 °F 55.0 °F 87% 29.64 in 8.0 mi ENE 16.1 mph 20.7 mph N/A   Overcast
4:53 AM 57.9 °F 55.9 °F 93% 29.63 in 5.0 mi NE 12.7 mph 20.7 mph 0.00 in Rain Light Rain
5:53 AM 57.9 °F 55.9 °F 93% 29.61 in 5.0 mi NE 10.4 mph 18.4 mph 0.02 in Rain Light Rain
6:53 AM 57.0 °F 55.0 °F 93% 29.59 in 5.0 mi NNE 12.7 mph 20.7 mph 0.03 in Rain Light Rain
7:53 AM 57.0 °F 55.0 °F 93% 29.58 in 3.0 mi NNE 12.7 mph - 0.12 in Rain Rain
8:53 AM 57.0 °F 55.0 °F 93% 29.56 in 2.5 mi North 10.4 mph - 0.11 in Rain Rain
9:38 AM 57.2 °F 55.4 °F 94% 29.54 in 4.0 mi North 8.1 mph - 0.20 in Rain Light Rain
9:53 AM 57.9 °F 55.9 °F 93% 29.53 in 6.0 mi North 6.9 mph - 0.21 in Rain Light Rain
10:45 AM 57.2 °F 57.2 °F 100% 29.51 in 2.0 mi North 8.1 mph - 0.08 in Rain Rain
10:53 AM 57.9 °F 57.0 °F 97% 29.51 in 1.8 mi North 6.9 mph - 0.11 in Rain Heavy Rain
11:27 AM 59.0 °F 57.2 °F 94% 29.51 in 1.2 mi North 5.8 mph - 0.21 in Rain Heavy Rain
11:37 AM 59.0 °F 57.2 °F 94% 29.51 in 1.8 mi North 6.9 mph - 0.24 in Rain Rain
11:53 AM 59.0 °F 57.0 °F 93% 29.51 in 1.5 mi North 8.1 mph - 0.29 in Rain Rain
12:01 PM 59.0 °F 57.2 °F 94% 29.51 in 1.2 mi North 6.9 mph - 0.04 in Rain Rain
12:12 PM 59.0 °F 57.2 °F 94% 29.51 in 1.5 mi North 5.8 mph - 0.08 in Rain Rain
12:20 PM 59.0 °F 57.2 °F 94% 29.51 in 1.2 mi NNW 5.8 mph - 0.11 in Rain Heavy Rain
12:37 PM 59.0 °F 57.2 °F 94% 29.50 in 1.5 mi NNW 8.1 mph - 0.18 in Rain Rain
12:53 PM 59.0 °F 57.0 °F 93% 29.50 in 2.0 mi NNW 6.9 mph - 0.22 in Rain Rain
1:07 PM 60.8 °F 57.2 °F 88% 29.50 in 2.5 mi North 6.9 mph - 0.04 in Rain Rain
1:18 PM 60.8 °F 57.2 °F 88% 29.49 in 2.5 mi NNW 8.1 mph - 0.07 in Rain Rain
1:28 PM 60.8 °F 57.2 °F 88% 29.49 in 3.0 mi North 10.4 mph 17.3 mph 0.09 in Rain Rain
1:53 PM 61.0 °F 57.9 °F 90% 29.50 in 7.0 mi North 9.2 mph - 0.11 in Rain Light Rain
2:15 PM 60.8 °F 59.0 °F 94% 29.50 in 2.5 mi NNW 8.1 mph - 0.00 in Rain Light Rain
2:21 PM 62.6 °F 57.2 °F 82% 29.50 in 2.0 mi North 5.8 mph - 0.00 in Rain Light Rain
2:27 PM 62.6 °F 59.0 °F 88% 29.50 in 1.8 mi North 5.8 mph - 0.01 in Rain Light Rain
2:37 PM 60.8 °F 59.0 °F 94% 29.50 in 2.0 mi North 5.8 mph - 0.01 in Rain Light Rain
2:53 PM 63.0 °F 60.1 °F 90% 29.50 in 4.0 mi NNW 6.9 mph 17.3 mph 0.01 in Rain Light Rain
3:20 PM 62.6 °F 59.0 °F 88% 29.50 in 5.0 mi NNW 6.9 mph - 0.00 in   Overcast
3:29 PM 62.6 °F 59.0 °F 88% 29.50 in 5.0 mi NNW 4.6 mph - 0.00 in   Overcast
3:41 PM 62.6 °F 59.0 °F 88% 29.50 in 8.0 mi North 5.8 mph - 0.00 in   Overcast
3:45 PM 62.6 °F 60.8 °F 94% 29.50 in 10.0 mi NW 4.6 mph - 0.00 in   Overcast
3:51 PM 62.6 °F 59.0 °F 88% 29.50 in 2.5 mi NW 5.8 mph - 0.01 in Rain Light Rain
3:53 PM 62.1 °F 57.9 °F 86% 29.51 in 2.0 mi NNW 6.9 mph - 0.01 in Rain Rain
3:58 PM 60.8 °F 57.2 °F 88% 29.50 in 1.5 mi NNW 8.1 mph - 0.01 in Rain Light Rain
4:02 PM 62.6 °F 59.0 °F 88% 29.50 in 3.0 mi North 4.6 mph - 0.01 in Rain Light Rain
4:17 PM 62.6 °F 59.0 °F 88% 29.50 in 6.0 mi North 4.6 mph - 0.01 in   Overcast
4:28 PM 60.8 °F 57.2 °F 88% 29.51 in 1.8 mi NW 3.5 mph - 0.01 in Rain Light Rain
4:40 PM 60.8 °F 57.2 °F 88% 29.51 in 3.0 mi WNW 4.6 mph - 0.02 in Rain Light Rain
4:53 PM 61.0 °F 59.0 °F 93% 29.51 in 8.0 mi Calm Calm - 0.02 in   Overcast
5:06 PM 60.8 °F 57.2 °F 88% 29.51 in 1.8 mi WNW 4.6 mph - 0.00 in Rain Light Rain
5:09 PM 60.8 °F 57.2 °F 88% 29.51 in 1.2 mi NW 5.8 mph - 0.01 in Rain Light Rain
5:20 PM 60.8 °F 57.2 °F 88% 29.51 in 2.0 mi NW 3.5 mph - 0.02 in Rain Light Rain
5:28 PM 60.8 °F 57.2 °F 88% 29.51 in 8.0 mi Variable 3.5 mph - 0.02 in   Overcast
5:49 PM 62.6 °F 57.2 °F 82% 29.51 in 10.0 mi WNW 6.9 mph - 0.02 in   Overcast
5:53 PM 62.1 °F 57.9 °F 86% 29.52 in 10.0 mi NNW 4.6 mph - 0.02 in   Overcast
6:05 PM 62.6 °F 59.0 °F 88% 29.51 in 4.0 mi WNW 4.6 mph - N/A   Overcast
6:39 PM 60.8 °F 57.2 °F 88% 29.51 in 3.0 mi Calm Calm - 0.00 in Rain Light Rain
6:50 PM 60.8 °F 59.0 °F 94% 29.51 in 3.0 mi Calm Calm - 0.00 in Rain Light Rain
6:53 PM 61.0 °F 59.0 °F 93% 29.52 in 5.0 mi Calm Calm - 0.00 in Rain Light Rain
6:58 PM 60.8 °F 59.0 °F 94% 29.51 in 10.0 mi Calm Calm - 0.00 in   Overcast
7:14 PM 62.6 °F 59.0 °F 88% 29.51 in 10.0 mi WNW 4.6 mph - 0.00 in   Overcast
7:53 PM 61.0 °F 59.0 °F 93% 29.51 in 10.0 mi West 4.6 mph - 0.00 in   Overcast
7:58 PM 60.8 °F 59.0 °F 94% 29.51 in 9.0 mi NNW 8.1 mph - N/A   Overcast
8:07 PM 60.8 °F 57.2 °F 88% 29.51 in 5.0 mi WNW 3.5 mph - 0.00 in Rain Light Rain
8:32 PM 60.8 °F 57.2 °F 88% 29.52 in 10.0 mi WSW 3.5 mph - 0.00 in   Overcast
8:53 PM 61.0 °F 57.9 °F 90% 29.52 in 10.0 mi WSW 3.5 mph - 0.00 in   Overcast
9:48 PM 60.8 °F 57.2 °F 88% 29.52 in 10.0 mi SSW 4.6 mph - N/A   Overcast
9:53 PM 60.1 °F 57.9 °F 93% 29.53 in 10.0 mi SSW 5.8 mph - N/A   Overcast
10:53 PM 60.1 °F 57.9 °F 93% 29.52 in 10.0 mi SW 6.9 mph - N/A   Overcast
11:53 PM 59.0 °F 57.9 °F 96% 29.51 in 10.0 mi SSW 4.6 mph - N/A   Overcast